#timestamp,LO_Frequency,Hit,StdDev 
1543298415.3,286047000.5,N
1543298435.1,286047002.4,N
1543298455.9,286047002.4,N
1543298475.7,286047001.8,N
1543298495.5,286047004.4,N
1543298515.4,286047003.9,N
1543298535.2,286047005.8,N
1543298555.1,286047005.8,N
1543298556.0,286047005.8,N
1543298575.8,286047005.5,N
1543298595.6,286047004.7,N
1543298615.5,286047005.1,N
1543298635.3,286047005.0,N
1543298655.1,286047006.7,N
1543298675.9,286047004.9,N
1543298695.7,286047008.8,N
1543298715.6,286047009.2,N
1543298735.4,286047006.9,N
1543298755.2,286047008.6,N
1543298775.1,286047012.1,Y
1543298776.0,286047012.1,P
1543298795.8,286047006.1,N
1543298815.7,286047009.1,N
1543298835.5,286047006.9,N
1543298855.3,286047007.3,N
1543298875.2,286047006.3,N
1543298895.0,286047006.5,N
1543298895.9,286047006.5,N
1543298915.7,286047008.4,Y
1543298935.6,286047002.3,P
1543298955.4,286047000.1,N
1543298975.3,286047002.3,N
1543298995.1,286047002.4,N
1543298996.0,286047002.4,N
1543299015.8,286046999.8,N
1543299035.7,286047000.2,N
1543299055.5,286047000.7,N
1543299075.3,286047002.2,N
1543299095.2,286047001.5,N
1543299115.0,286047001.5,N
1543299115.9,286047001.5,N
1543299135.8,286046999.7,N
1543299155.6,286047002.2,N
1543299175.4,286047000.5,N
1543299195.3,286047000.9,N
1543299215.1,286046999.7,N
1543299235.8,286047002.2,N
1543299255.7,286047001.4,N
1543299275.5,286047002.5,N
1543299295.4,286047001.0,N
1543299315.2,286047000.4,N
1543299335.0,286047002.8,N
1543299335.9,286047002.8,N
1543299355.8,286047002.1,N
1543299375.6,286047003.4,N
1543299395.4,286047001.5,N
1543299415.3,286047004.3,N
1543299435.1,286047001.3,N
1543299455.9,286047001.3,N
1543299475.7,286047002.1,N
1543299495.5,286047002.0,N
1543299515.4,286047002.2,N
1543299535.2,286047001.3,N
1543299555.0,286047002.0,N
1543299555.9,286047002.0,N
1543299575.8,286047003.9,Y
1543299595.6,286047000.1,P
1543299615.5,286046999.9,N
1543299635.3,286047001.1,N
1543299655.1,286047001.1,N
1543299675.9,286047001.0,N
1543299695.7,286047001.0,N
1543299715.6,286046998.1,Y
1543299735.4,286046996.5,P
1543299755.2,286046997.4,N
1543299775.1,286046997.1,N
1543299776.0,286046997.1,N
1543299795.8,286046996.9,N
1543299815.6,286046997.6,N
1543299835.5,286046995.3,Y
1543299855.3,286046998.4,P
1543299875.2,286046999.2,N
1543299895.9,286046999.5,N
1543299915.7,286046998.8,N
1543299935.6,286047001.2,N
1543299955.4,286047000.7,N
1543299975.2,286047000.2,N
1543299995.1,286047002.3,N
1543299996.0,286047002.3,N
1543300015.8,286047000.9,N
1543300035.7,286047000.7,N
1543300055.5,286046998.5,N
1543300075.3,286047000.5,N
1543300095.2,286047000.1,N
1543300115.0,286047000.4,N
1543300115.9,286047000.4,N
1543300135.7,286046999.8,N
1543300155.6,286047002.1,N
1543300175.4,286047002.1,N
1543300195.3,286047000.1,N
1543300215.1,286047000.9,N
1543300216.0,286047000.9,N
1543300235.8,286047000.0,N
1543300255.7,286047001.6,N
1543300275.5,286047000.2,N
1543300295.3,286047000.4,N
1543300315.2,286046998.4,N
1543300335.0,286047000.8,N
1543300335.9,286047000.8,N
1543300355.8,286047000.8,N
1543300375.6,286046999.1,N
1543300395.4,286047001.1,N
1543300415.3,286046999.5,N
1543300435.1,286046997.7,N
1543300455.9,286046999.0,N
1543300475.7,286046999.0,N
1543300495.5,286046998.1,N
1543300515.4,286046998.9,N
1543300535.2,286046997.0,N
1543300555.0,286046998.6,N
1543300555.9,286046998.6,N
1543300575.8,286046998.6,N
1543300595.6,286047000.9,N
1543300615.5,286046999.4,N
1543300635.3,286046999.0,N
1543300655.1,286047000.7,N
1543300675.9,286046998.9,N
1543300695.7,286047000.8,N
1543300715.5,286046998.3,N
1543300735.4,286046998.2,N
1543300755.2,286046998.6,N
1543300775.1,286046999.8,N
1543300776.0,286046999.8,N
1543300795.8,286047000.1,N
1543300815.6,286047000.7,N
1543300835.5,286047000.5,N
1543300855.3,286047000.4,N
1543300875.1,286047000.1,N
1543300895.9,286047001.1,N
1543300915.7,286047000.3,N
1543300935.6,286047000.1,N
1543300955.4,286047002.6,N
1543300975.2,286047000.2,N
1543300995.1,286047001.1,N
1543300996.0,286047001.1,N
1543301015.8,286047000.3,N
1543301035.6,286047002.3,N
1543301055.5,286047000.2,N
1543301075.3,286047000.3,N
1543301095.2,286047002.7,N
1543301115.9,286046998.2,N
1543301135.7,286046998.9,N
1543301155.6,286047001.0,N
1543301175.4,286047000.4,N
1543301195.2,286047002.3,N
1543301215.1,286047002.0,N
1543301216.0,286047002.0,N
1543301235.8,286047001.9,N
1543301255.7,286046999.8,N
1543301275.5,286047000.9,N
1543301295.3,286047002.3,N
1543301315.2,286047002.4,N
1543301335.0,286047000.6,N
1543301335.9,286047000.6,N
1543301355.8,286047002.4,N
1543301375.6,286046999.7,N
1543301395.4,286047000.0,N
1543301415.3,286047000.6,N
1543301435.1,286047000.5,N
1543301455.8,286047002.8,N
1543301475.7,286047002.2,N
1543301495.5,286047001.7,N
1543301515.4,286047001.3,N
1543301535.2,286047005.4,Y
1543301555.0,286047003.9,P
1543301555.9,286047003.9,N
1543301575.8,286047001.7,N
1543301595.6,286047004.0,Y
1543301615.4,286047000.4,P
1543301635.3,286046999.0,N
1543301655.1,286046999.2,N
1543301675.9,286046998.9,N
1543301695.7,286046999.2,N
1543301715.5,286046999.2,N
1543301735.4,286046999.2,N
1543301755.2,286046996.6,N
1543301775.0,286046996.5,N
1543301775.9,286046996.5,N
1543301795.8,286046998.8,N
1543301815.6,286046998.8,N
1543301835.5,286046999.5,N
1543301855.3,286046996.6,N
1543301875.1,286046999.3,N
1543301895.9,286046999.0,N
1543301915.7,286046999.6,N
1543301935.5,286046997.0,N
1543301955.4,286046998.6,N
1543301975.2,286047000.9,N
1543301995.1,286046998.8,N
1543301996.0,286046998.8,N
